Regional Weather Roundup
Issued by NWS

Home | Current Version | Previous Version | Graphics & Text | Print | Product List | Glossary On
Versions: 1 2 3 4 5 6 7 8 9 10 11 12 13 14 15 16 17 18 19 20 21 22 23 24 25 26 27 28 29 30 31 32 33 34 35 36 37 38 39 40 41 42 43 44 45 46 47 48 49 50
000
ASUS45 KBOU 260707
RWRCO

WEATHER ROUNDUP FOR COLORADO
NATIONAL WEATHER SERVICE DENVER/BOULDER CO
1200 AM MST THU FEB 26 2015

NOTE: "FAIR" INDICATES FEW OR NO CLOUDS BELOW 12000 FEET WITH NO
SIGNIFICANT WEATHER AND/OR OBSTRUCTIONS TO VISIBILITY.

COZ001>005-013-030-031-260800-
...NORTHWEST COLORADO...

CITY           SKY/WX    TMP DP  RH WIND       PRES   REMARKS
CRAIG          CLEAR     16  10  77 S5        30.08S WCI   9
HAYDEN         MOCLDY    18  12  79 SW5       30.04F WCI  11
MEEKER         CLEAR     21  14  74 NE3       30.06S
MOUNT WERNER   NOT AVBL
STEAMBOAT SPGS CLOUDY    16  10  76 CALM      30.03S
WALDEN         CLOUDY    12   9  85 N6        30.00F WCI   3
$$

COZ006>008-011-260800-
...WEST CENTRAL VALLEYS...

CITY           SKY/WX    TMP DP  RH WIND       PRES   REMARKS
GRAND JUNCTION CLEAR     30  20  66 N8        30.06S WCI  22
MONTROSE       MOCLDY    28  25  88 SE5       30.06F WCI  23
EAGLE          CLOUDY    27  19  74 NW3       30.06S
RIFLE          CLEAR     29  18  63 NW10      30.05F WCI  20
DELTA          PTCLDY    32  30  92 N5        30.04S WCI  27
NUCLA          PTCLDY    30  27  86 SE7       30.06S WCI  23
$$

COZ017>023-064>068-260800-
...SOUTHWEST COLORADO...

CITY           SKY/WX    TMP DP  RH WIND       PRES   REMARKS
DURANGO        CLEAR     25  23  92 S5        29.95F WCI  19
CORTEZ         CLEAR     23  21  92 NE3       30.01S
PAGOSA SPRINGS CLOUDY    24  23  99 CALM      29.97S
TELLURIDE      CLOUDY    25  16  67 N3        30.00S
WOLF CREEK PAS PTCLDY    10   5  79 N3        29.96F
$$

COZ009-010-012-014-032>034-037-058>063-260800-
...CENTRAL COLORADO...

CITY           SKY/WX    TMP DP  RH WIND       PRES   REMARKS
ASPEN          MOCLDY    23  17  78 CALM      29.98S
BUENA VISTA    SNOW      20  17  90 E6        30.01R VSB 1/2 WCI  12
COPPER MTN     CLOUDY    10   3  72 W17       29.89F WCI  -7
BERTHOUD PASS  LGT SNOW   0  -8  71 NW3       29.88F
COTTONWOOD PAS LGT SNOW  19  14  79 CALM      29.96S VSB 3/4
GUNNISON       CLOUDY    23  16  74 SW8       30.00S WCI  14
KREMMLING      PTCLDY    18   9  68 SW3       30.04S
LEADVILLE      CLOUDY    12   5  73 N8        29.93S WCI   0
MONARCH PASS   CLOUDY     9   5  85 MISG      30.00F
SALIDA         CLOUDY    24  19  84 E10       30.09R WCI  13
SUNLIGHT       PTCLDY   N/A N/A N/A CALM        N/A
WILKERSON PASS LGT SNOW   7   3  85 E7        29.94S VSB 3/4 WCI  -5
$$

COZ069>075-260800-
...SAN LUIS VALLEY/SANGRE DE CRISTO MOUNTAINS...

CITY           SKY/WX    TMP DP  RH WIND       PRES   REMARKS
ALAMOSA        LGT SNOW  23  19  85 E14       29.97R VSB 3/4 WCI  11
LA VETA PASS   SNOW      12  10  92 MISG      29.95S VSB 1/2
SAGUACHE       CLOUDY    25  19  80 S5        29.96S WCI  19
$$

COZ035-036-038>040-260800-
...NORTHERN COLORADO FRONT RANGE...

CITY           SKY/WX    TMP DP  RH WIND       PRES   REMARKS
DENVER INTL AP SNOW      16  13  88 NE12      30.18R VSB 1/4 WCI   3
DMNS CITY PARK   N/A     17  16  95 E9G16     30.19R WCI   6
AURORA         LGT SNOW  15  14  93 NE18      30.17R FOG     WCI  -1
FRONT RANGE AP NOT AVBL
ERIE MUNI ARPT LGT SNOW  19  18  93 NE6       30.20R VSB 1   WCI  11
BOULDER MUN AP LGT SNOW  21  18  86 N3        30.18S
CENTENNIAL     LGT SNOW  16  14  92 NE7       30.15R VSB 3/4 WCI   6
BROOMFIELD     LGT SNOW  19  18  93 NE10      30.17R WCI   8
FORT COLLINS   MOCLDY    19  10  68 N13       30.19R WCI   7
LONGMONT       CLOUDY    22  15  72 N5        30.21S WCI  16
$$

COZ041-046-047-076>085-087-088-260800-
...PIKES PEAK/PALMER DIVIDE AND SOUTHERN FOOTHILLS...

CITY           SKY/WX    TMP DP  RH WIND       PRES   REMARKS
COLO. SPRINGS  LGT SNOW  20  15  81 NE18      30.10R VSB 3/4 WCI   5
A. F. ACADEMY  LGT SNOW  18  12  79 N13       30.09R WCI   4
ELLICOTT       NOT AVBL
FALCON         LGT SNOW  15  13  89 N15G22    30.08R WCI   0
FORT CARSON    LGT SNOW  26  20  80 N13       30.07S WCI  14
LIMON          LGT SNOW  20  19  96 N14       30.11R FOG     WCI   7
MONUMENT HILL  CLOUDY    12  10  92 N17G25    30.08R WCI  -5
TRINIDAD       LGT SNOW  24  21  88 E8        30.10S FOG     WCI  15
$$

COZ042>045-048>051-090-091-260800-
...NORTHEAST COLORADO...

CITY           SKY/WX    TMP DP  RH WIND       PRES   REMARKS
GREELEY ARPT   CLOUDY    19   9  63 NE13      30.18S WCI   7
AKRON          LGT SNOW  15  13  91 NE13      30.18R FOG     WCI   1
BURLINGTON     CLOUDY    19  13  77 NE20G28   30.17R WCI   3
WRAY           CLOUDY    18  11  74 N16G23    30.24R WCI   3
STERLING       CLOUDY    19  12  73 NE12G18   30.21S WCI   7
HOLYOKE        NOT AVBL
FORT MORGAN    FLURRIES  19  15  84 NE12      30.20R WCI   7
$$

COZ086-089-092>099-260800-
...SOUTHEAST COLORADO...

CITY           SKY/WX    TMP DP  RH WIND       PRES   REMARKS
PUEBLO         LGT SNOW  29  26  89 NE6       30.13R FOG     WCI  23
LA JUNTA       CLOUDY    31  26  82 NE7       30.13R WCI  24
LAMAR          CLOUDY    29  22  75 E13       30.14R WCI  19
SPRINGFIELD      N/A     26  22  84 NE14      30.12R WCI  14
$$


USA.gov is the U.S. government's official web portal to all federal, state and local government web resources and services.